FW2417 Weather Reports


Display with metric or nautical units.
time (UTC)temp
F
wind
direction
speed
MPH
gust
MPH
rain 1hr
in
rain 24hr
in
rain mn
in
humidity
%
barometer
mb
20260831041614 72 136 0.0 1.0 0.00 0.00 0.00 55 1017.3
20260831040110 72 122 0.0 0.0 0.00 0.00 0.00 55 1017.3
20260831034606 73 124 0.0 1.0 0.00 0.00 0.00 54 1017.3
20260831033100 73 139 0.0 1.0 0.00 0.00 0.00 54 1017.4
20260831031554 73 173 0.0 1.0 0.00 0.00 0.00 53 1017.5
20260831030007 74 201 0.0 1.0 0.00 0.00 0.00 52 1017.5
20260831024504 74 218 0.0 0.0 0.00 0.00 0.00 53 1017.6
20260831023115 73 218 0.0 0.0 0.00 0.00 0.00 54 1017.6
20260831021618 74 218 0.0 0.0 0.00 0.00 0.00 53 1017.6
20260831020115 75 218 0.0 2.0 0.00 0.00 0.00 52 1017.6
20260831014608 75 211 0.0 2.0 0.00 0.00 0.00 52 1017.5
20260831013104 76 233 0.0 3.0 0.00 0.00 0.00 52 1017.5
20260831011609 75 280 0.0 2.0 0.00 0.00 0.00 52 1017.6
20260831010045 75 243 0.0 1.0 0.00 0.00 0.00 52 1017.6
20260831004549 76 246 0.0 1.0 0.00 0.00 0.00 52 1017.5
20260831003041 77 234 0.0 5.0 0.00 0.00 0.00 51 1017.4
20260831001539 77 229 0.0 3.0 0.00 0.00 0.00 51 1017.5
20260831000012 77 236 0.0 0.0 0.00 0.00 0.00 51 1017.5
20260830234508 77 218 0.0 0.0 0.00 0.00 0.00 51 1017.4
20260830233118 77 205 0.0 0.0 0.00 0.00 0.00 50 1017.5
20260830231618 78 203 0.0 0.0 0.00 0.00 0.00 51 1017.4
20260830230110 78 231 0.0 0.0 0.00 0.00 0.00 50 1017.4
20260830224609 78 233 0.0 0.0 0.00 0.00 0.00 51 1017.2
20260830223052 78 232 0.0 0.0 0.00 0.00 0.00 51 1017.2
20260830221549 78 239 0.0 4.0 0.00 0.00 0.00 50 1017.2
20260830220010 78 213 2.0 9.0 0.00 0.00 0.00 49 1017.1
20260830214616 79 229 2.0 10.0 0.00 0.00 0.00 49 1017.1
20260830213127 79 204 3.0 12.0 0.00 0.00 0.00 49 1017.1
20260830211607 80 235 2.0 10.0 0.00 0.00 0.00 47 1017.1
20260830210103 81 222 2.0 7.0 0.00 0.00 0.00 47 1017.0
20260830204610 82 226 1.0 5.0 0.00 0.00 0.00 46 1016.9
20260830203055 83 243 0.0 3.0 0.00 0.00 0.00 43 1016.8
20260830201600 84 249 0.0 4.0 0.00 0.00 0.00 41 1016.8
20260830200049 85 245 0.0 3.0 0.00 0.00 0.00 39 1016.5
20260830194551 86 260 0.0 6.0 0.00 0.00 0.00 36 1016.4
20260830193047 87 231 0.0 3.0 0.00 0.00 0.00 35 1016.3
20260830191544 88 229 0.0 7.0 0.00 0.00 0.00 33 1016.0
20260830190043 89 215 0.0 4.0 0.00 0.00 0.00 30 1016.0
20260830184538 90 249 1.0 10.0 0.00 0.00 0.00 29 1015.8
20260830183035 91 245 0.0 3.0 0.00 0.00 0.00 27 1015.8
20260830181534 92 259 0.0 6.0 0.00 0.00 0.00 25 1015.7
20260830180114 95 258 0.0 5.0 0.00 0.00 0.00 24 1015.8
20260830174618 96 243 2.0 5.0 0.00 0.00 0.00 19 1015.8
20260830173111 96 307 1.0 7.0 0.00 0.00 0.00 20 1015.7
20260830171615 97 256 1.0 6.0 0.00 0.00 0.00 20 1015.7
20260830170105 97 255 1.0 5.0 0.00 0.00 0.00 19 1015.7
20260830164602 97 225 0.0 5.0 0.00 0.00 0.00 19 1015.8
20260830163055 98 300 1.0 4.0 0.00 0.00 0.00 18 1015.7
20260830161605 97 249 1.0 6.0 0.00 0.00 0.00 19 1015.8
20260830160039 97 358 0.0 5.0 0.00 0.00 0.00 19 1015.8
20260830154539 96 7 2.0 6.0 0.00 0.00 0.00 20 1015.9
20260830153044 97 209 0.0 5.0 0.00 0.00 0.00 21 1015.9
20260830151538 97 157 0.0 5.0 0.00 0.00 0.00 21 1016.0
20260830150117 97 148 2.0 4.0 0.00 0.00 0.00 21 1016.2
20260830144632 96 346 3.0 8.0 0.00 0.00 0.00 22 1016.4
20260830143115 95 77 0.0 4.0 0.00 0.00 0.00 22 1016.5
20260830141612 96 13 0.0 3.0 0.00 0.00 0.00 21 1016.7
20260830140110 96 290 0.0 2.0 0.00 0.00 0.00 22 1016.8
20260830134606 95 243 0.0 3.0 0.00 0.00 0.00 22 1017.0
20260830133054 96 326 0.0 4.0 0.00 0.00 0.00 23 1017.1
20260830131552 95 117 0.0 3.0 0.00 0.00 0.00 20 1017.3
20260830130055 94 187 2.0 6.0 0.00 0.00 0.00 24 1017.5
20260830124540 93 329 0.0 3.0 0.00 0.00 0.00 25 1017.6
20260830123038 92 334 0.0 3.0 0.00 0.00 0.00 27 1017.7
20260830121509 92 240 0.0 3.0 0.00 0.00 0.00 27 1017.9
20260830120029 91 65 0.0 4.0 0.00 0.00 0.00 27 1018.0
20260830114503 92 242 0.0 3.0 0.00 0.00 0.00 28 1018.1
20260830113116 91 339 0.0 2.0 0.00 0.00 0.00 28 1018.3
20260830111612 90 255 0.0 2.0 0.00 0.00 0.00 29 1018.3
20260830110104 89 253 0.0 2.0 0.00 0.00 0.00 30 1018.5
20260830104606 88 131 0.0 1.0 0.00 0.00 0.00 32 1018.5
20260830103057 87 67 0.0 1.0 0.00 0.00 0.00 33 1018.6
20260830101606 86 146 0.0 1.0 0.00 0.00 0.00 33 1018.7
20260830100053 84 72 0.0 2.0 0.00 0.00 0.00 35 1018.6
20260830094549 83 109 0.0 1.0 0.00 0.00 0.00 36 1018.7
20260830093041 82 140 0.0 1.0 0.00 0.00 0.00 37 1018.7
20260830091512 82 92 0.0 1.0 0.00 0.00 0.00 37 1018.7
20260830090007 80 78 0.0 1.0 0.00 0.00 0.00 39 1018.7
20260830084502 79 96 0.0 1.0 0.00 0.00 0.00 38 1018.6
20260830083112 78 108 0.0 1.0 0.00 0.00 0.00 39 1018.5
20260830081640 77 53 0.0 1.0 0.00 0.00 0.00 40 1018.5
20260830080058 76 121 0.0 1.0 0.00 0.00 0.00 42 1018.4
20260830074606 75 122 0.0 1.0 0.00 0.00 0.00 42 1018.3
20260830073048 74 122 0.0 0.0 0.00 0.00 0.00 43 1018.3
20260830071549 74 122 0.0 0.0 0.00 0.00 0.00 45 1018.2
20260830070015 72 121 0.0 1.0 0.00 0.00 0.00 46 1018.1
20260830064508 71 138 0.0 2.0 0.00 0.00 0.00 46 1018.0
20260830063004 71 114 0.0 1.0 0.00 0.00 0.00 46 1017.9
20260830061614 71 121 0.0 0.0 0.00 0.00 0.00 47 1017.8
20260830060108 70 119 0.0 0.0 0.00 0.00 0.00 48 1017.8
20260830054604 70 117 0.0 0.0 0.00 0.00 0.00 48 1017.7
20260830053057 70 89 0.0 1.0 0.00 0.00 0.00 49 1017.6
20260830051601 70 85 0.0 1.0 0.00 0.00 0.00 52 1017.7
20260830050055 70 93 0.0 1.0 0.00 0.00 0.00 52 1017.7
20260830044546 70 89 0.0 1.0 0.00 0.00 0.00 52 1017.7
20260830043041 69 74 0.0 0.0 0.00 0.00 0.00 55 1017.6